ASNARO (40298 NORAD) Tracking and Keplerian Element Data

This shows tracking and keplerian element data for the satellite.

Feedback or suggestion? Click here.




ElementValue
Catalog40298
NameASNARO
Epoch Orbit22382
Epoch Day323.16538238
Epoch Year2018
RAAN43.8519
Inclination97.4582
Eccentricity0.0001982
Argument of Perigee100.464
Mean Anonmoly346.7982
Mean Motion15.19563796
Decay Rate7.26E-06
L11 40298U 14070A 18323.16538238 .00000726 00000-0 37330-4 0 9993
L22 40298 97.4582 43.8519 0001982 100.4640 346.7982 15.19563796223823

Live tracking and technical data element details for ASNARO (NORAD 40298). ASNARO can be tracked NOW for your location showing map with azimuth and elevation plus other details from your city location.

Track the satellite on the map from your city or location and see movement details for azimuth, elevation, latitude, longitude, range, height, and movement on the map or in text.







IsCatalogInMostPopularTable: catalog: 40298, numindb: 113
Update: records affected: 1



GetName: 40298 ASNARO

Hit Count: updated at: Mon, 19 Nov 2018 14:26:47 GMT